Miscellaneous Local Product
Issued by NWS Hastings, NE

Home | Current Version | Previous Version | Text Only | Print | Product List | Glossary Off
Versions: 1 2 3 4 5 6 7 8 9 10 11 12 13 14 15 16 17 18 19 20 21 22 23 24 25 26 27 28 29 30 31 32 33 34 35 36 37 38 39 40 41 42 43 44 45 46 47 48 49 50

000
AXUS43 KGID 202110
MISGRI

GID CWA HOURLY WEATHER ROUNDUP
NATIONAL WEATHER SERVICE HASTINGS NE
400 PM CDT SAT SEP 20 2014

NOTE: "FAIR" INDICATES FEW OR NO CLOUDS BELOW 12,000 FEET WITH NO
SIGNIFICANT WEATHER AND/OR OBSTRUCTIONS TO VISIBILITY.

...SOUTH CENTRAL NEBRASKA...

CITY           SKY/WX    TMP DP  RH WIND       PRES   REMARKS
GRAND ISLAND   SUNNY     86  52  30 NW10      30.00S
HASTINGS       SUNNY     85  47  26 N8        30.00F
KEARNEY        SUNNY     84  52  32 NW12      30.03F
ORD            SUNNY     84  51  31 NW13      29.99F
YORK           SUNNY     82  63  51 W8        29.98S
AURORA         SUNNY     84  47  27 N6        29.99S
LEXINGTON      SUNNY     85  50  29 N8        30.04F
HOLDREGE       SUNNY     83  50  31 N7        30.04S
HEBRON         SUNNY     87  50  27 CALM      29.96S

...NEBRASKA PANHANDLE...

CITY           SKY/WX    TMP DP  RH WIND       PRES   REMARKS
CHADRON        SUNNY     82  43  25 NW24G35   30.13F
ALLIANCE       SUNNY     82  45  27 N16G26    30.15S
SCOTTSBLUFF    SUNNY     85  45  24 NW9G22    30.16F
SIDNEY         SUNNY     82  46  28 NE9G16    30.20S

...WESTERN AND NORTH CENTRAL NEBRASKA...

CITY           SKY/WX    TMP DP  RH WIND       PRES   REMARKS
VALENTINE      SUNNY     82  43  25 NW24G32   30.07R
AINSWORTH      SUNNY     80  45  29 NW21G36   30.06R
ONEILL         MOSUNNY   82  51  34 NW17G24   30.00S
BROKEN BOW     SUNNY     87  47  24 NW18G28   30.04S
IMPERIAL       SUNNY     86  47  25 N10       30.11F
NORTH PLATTE   SUNNY     84  51  31 NW12G17   30.06F
MCCOOK         SUNNY     87  49  26 VRB6      30.06F

...EASTERN NEBRASKA...

CITY           SKY/WX    TMP DP  RH WIND       PRES   REMARKS
NORFOLK        SUNNY     84  53  34 NW14      29.95F
SO SIOUX CITY  SUNNY     84  54  35 NW13G22   29.89F
TEKAMAH        SUNNY     85  57  38 NW9       29.91F
COLUMBUS       SUNNY     82  55  39 W10       29.97S
ALBION         SUNNY     84  47  27 NW14G20   29.99S
OMAHA EPPLEY   MOSUNNY   85  57  38 W9        29.91S
OFFUTT AFB     SUNNY     86  62  44 NW10      29.91S
MILLARD        SUNNY     84  58  41 W10G17    29.91F
LINCOLN        SUNNY     87  55  33 NW13      29.95S
NEBRASKA CITY    N/A     83  55  37 NW8       29.93S
BEATRICE       SUNNY     87  60  39 W6        29.94S
FALLS CITY     PTSUNNY   81  70  69 W10       29.91F

...NORTHERN KANSAS...

CITY           SKY/WX    TMP DP  RH WIND       PRES   REMARKS
GOODLAND       SUNNY     84  52  33 NE12G21   30.12S
HILL CITY      SUNNY     89  54  30 NE17G24   30.02S
NORTON         CLEAR     88  39  18 N14G21    30.03
SMITH CENTER     N/A     88  55  33 NE7G17    29.99F HAZE
BELOIT         CLOUDY    88  64  45 N8        29.96R
HAYS           MOSUNNY   88  66  48 N6        29.98S HX  90
RUSSELL        MOSUNNY   89  66  46 NW5       29.96S HX  91
CONCORDIA      PTSUNNY   84  69  60 NE10      29.96S
SALINA         MOSUNNY   91  66  43 SW12      29.94F HX  93
TOPEKA         PTSUNNY   85  67  54 SW6       29.93R



USA.gov is the U.S. government's official web portal to all federal, state and local government web resources and services.